User: anonymous
Location: Caltech
(34.1382°N, 118.1253°W)
Time: 13:29:49
(UTC-07:00)
Language:

FENGYUN 3A - Orbit

View from above orbital plane
View from above orbital plane
View from above satellite
View from above satellite

Ground track
Ground track

The orbit data is extracted from the following two-line orbital elements,

1 32958U 08026A   14209.22337258 -.00000041  00000-0  70191-6 0  2107
2 32958 098.5506 266.6712 0010406 095.1594 265.0765 14.19459573319660
Epoch (UTC): 28 July 2014 05:21:39
Eccentricity: 0.0010406
inclination: 98.5506°
perigee height: 819 km
apogee height: 834 km
right ascension of ascending node: 266.6712°
argument of perigee: 95.1594°
revolutions per day: 14.19459573
mean anomaly at epoch: 265.0765°
orbit number at epoch: 31966

The dashed part of the orbit path shows where the satellite is in the earth's shadow,  

DLR